Weather History for Galliano, LA

Change the Weather History Date:

Monday, November 4, 2013

  Actual Average (KAXO) Record (KAXO)
Temperature  
Mean Temperature 69 °F -  
Max Temperature 75 °F 69 °F 80 °F (2012)
Min Temperature 63 °F 65 °F 53 °F (2011)
Cooling Degree Days 4    
Growing Degree Days 19 (Base 50)    
Moisture  
Dew Point 60 °F    
Average Humidity 73    
Maximum Humidity 91    
Minimum Humidity 53    
Precipitation  
Precipitation 0.00 in - - ()
Sea Level Pressure  
Sea Level Pressure 30.15 in    
Wind  
Wind Speed 8 mph (NE)    
Max Wind Speed 18 mph    
Max Gust Speed 28 mph    
Visibility 10 miles    
Events      
Averages and records for this station are not official NWS values.
T = Trace of Precipitation, MM = Missing Value Source: NWS Daily Summary

Daily Weather History Graph

Daily Weather History Graph

Search for Another Location

Airport:

Trip Planner

Search our weather history database for the weather conditions in past years. The results will help you decide how hot, cold, wet, or windy it might be!

Date:

Astronomy

Nov. 04, 2013 Rise Set
Actual Time 6:16 AM CST 5:12 PM CST
Civil Twilight 5:51 AM CST 5:36 PM CST
Nautical Twilight 5:23 AM CST 6:05 PM CST
Astronomical Twilight 4:55 AM CST 6:33 PM CST
Moon 7:22 AM CST (11/4) 6:22 PM CST (11/4)
Length of Visible Light 11h 44m
Length of Day
10h 55m
New Moon, 2% of the Moon is Illuminated
Nov 4
New Moon
Nov 9
First Quarter
Nov 17
Full
Nov 25
Last Quarter
Dec 2
New

Hourly Weather History & Observations

Time (CST) Temp. Dew Point Humidity Pressure Visibility Wind Dir Wind Speed Gust Speed Precip Events Conditions
12:15 AM 63.5 °F 55.6 °F 75% 30.15 in 10.0 mi ENE 4.6 mph - N/A   Mostly Cloudy
12:35 AM 64.0 °F 55.0 °F 73% 30.15 in 10.0 mi ENE 6.9 mph - N/A   Mostly Cloudy
12:55 AM 64.0 °F 54.9 °F 72% 30.14 in 10.0 mi ENE 4.6 mph - N/A   Mostly Cloudy
1:15 AM 64.4 °F 54.9 °F 71% 30.14 in 10.0 mi ENE 4.6 mph - N/A   Mostly Cloudy
1:35 AM 64.6 °F 54.7 °F 70% 30.14 in 10.0 mi ENE 5.8 mph - N/A   Overcast
1:55 AM 64.8 °F 55.9 °F 73% 30.14 in 10.0 mi NE 4.6 mph - N/A   Overcast
2:15 AM 65.1 °F 56.3 °F 73% 30.14 in 10.0 mi ENE 4.6 mph - N/A   Overcast
2:35 AM 65.5 °F 56.7 °F 73% 30.13 in 10.0 mi NE 5.8 mph - N/A   Overcast
2:55 AM 65.8 °F 56.3 °F 71% 30.13 in 10.0 mi NE 6.9 mph - N/A   Overcast
3:15 AM 65.8 °F 56.7 °F 72% 30.13 in 10.0 mi NE 5.8 mph - N/A   Overcast
3:35 AM 66.0 °F 56.5 °F 71% 30.13 in 10.0 mi NE 4.6 mph - N/A   Overcast
3:55 AM 66.2 °F 56.3 °F 70% 30.14 in 10.0 mi NE 5.8 mph - N/A   Overcast
4:15 AM 66.2 °F 55.9 °F 69% 30.15 in 10.0 mi NE 6.9 mph - N/A   Overcast
4:35 AM 66.2 °F 56.3 °F 70% 30.15 in 10.0 mi NE 5.8 mph - N/A   Overcast
4:55 AM 66.2 °F 56.3 °F 70% 30.14 in 10.0 mi NNE 4.6 mph - N/A   Overcast
5:15 AM 66.4 °F 56.7 °F 71% 30.15 in 10.0 mi NE 5.8 mph - N/A   Overcast
5:35 AM 66.6 °F 56.7 °F 70% 30.15 in 10.0 mi NE 5.8 mph - N/A   Overcast
5:55 AM 66.6 °F 57.2 °F 72% 30.15 in 10.0 mi NE 6.9 mph - N/A   Overcast
6:15 AM 66.6 °F 57.2 °F 72% 30.15 in 10.0 mi NE 5.8 mph - N/A   Overcast
6:35 AM 66.7 °F 57.2 °F 71% 30.16 in 10.0 mi NE 5.8 mph - N/A   Overcast
6:55 AM 67.1 °F 56.7 °F 69% 30.17 in 10.0 mi NE 6.9 mph - N/A   Overcast
7:15 AM 67.3 °F 56.3 °F 68% 30.16 in 10.0 mi NE 8.1 mph - N/A   Overcast
7:35 AM 67.6 °F 56.1 °F 67% 30.18 in 10.0 mi NE 6.9 mph - N/A   Overcast
7:55 AM 68.0 °F 55.9 °F 65% 30.19 in 10.0 mi NE 8.1 mph - N/A   Overcast
8:15 AM 68.9 °F 56.3 °F 64% 30.19 in 10.0 mi NE 6.9 mph - N/A   Overcast
8:35 AM 69.6 °F 56.8 °F 64% 30.20 in 10.0 mi NE 8.1 mph - N/A   Overcast
8:55 AM 70.2 °F 57.2 °F 63% 30.21 in 10.0 mi NE 6.9 mph - N/A   Overcast
9:15 AM 70.3 °F 58.8 °F 67% 30.22 in 10.0 mi NE 5.8 mph - N/A   Overcast
9:35 AM 71.6 °F 57.4 °F 61% 30.22 in 10.0 mi NE 5.8 mph - N/A   Overcast
9:55 AM 72.5 °F 57.4 °F 59% 30.23 in 10.0 mi NE 5.8 mph - N/A   Overcast
10:15 AM 71.6 °F 57.2 °F 60% 30.22 in 10.0 mi ENE 8.1 mph - N/A   Overcast
10:35 AM 72.5 °F 57.2 °F 59% 30.21 in 10.0 mi NE 5.8 mph - N/A   Overcast
10:55 AM 73.8 °F 56.5 °F 55% 30.21 in 10.0 mi NE 4.6 mph - N/A   Overcast
11:15 AM 73.9 °F 55.8 °F 53% 30.21 in 10.0 mi NE 5.8 mph - N/A   Overcast
11:35 AM 73.0 °F 57.7 °F 59% 30.20 in 10.0 mi NE 9.2 mph - N/A   Overcast
11:55 AM 70.9 °F 58.6 °F 65% 30.19 in 10.0 mi ENE 16.1 mph - N/A   Scattered Clouds
12:15 PM 73.6 °F 59.2 °F 61% 30.17 in 10.0 mi ENE 15.0 mph 20.7 mph N/A   Clear
12:35 PM 74.7 °F 58.3 °F 57% 30.16 in 10.0 mi ENE 15.0 mph 21.9 mph N/A   Clear
12:55 PM 75.0 °F 58.6 °F 57% 30.15 in 10.0 mi ENE 17.3 mph 24.2 mph N/A   Clear
1:15 PM 74.3 °F 59.0 °F 59% 30.15 in 10.0 mi ENE 15.0 mph 25.3 mph N/A   Clear
1:35 PM 73.0 °F 60.6 °F 65% 30.14 in 10.0 mi NE 17.3 mph 27.6 mph N/A   Clear
1:55 PM 73.0 °F 60.8 °F 65% 30.14 in 10.0 mi NE 17.3 mph 25.3 mph N/A   Clear
2:15 PM 73.8 °F 60.8 °F 64% 30.13 in 10.0 mi NE 13.8 mph 26.5 mph N/A   Clear
2:35 PM 72.9 °F 61.0 °F 66% 30.13 in 10.0 mi NE 18.4 mph 25.3 mph N/A   Clear
2:55 PM 72.5 °F 61.3 °F 68% 30.13 in 10.0 mi NE 11.5 mph 20.7 mph N/A   Clear
3:15 PM 71.6 °F 62.1 °F 72% 30.14 in 10.0 mi NE 11.5 mph 21.9 mph N/A   Clear
3:35 PM 71.6 °F 61.7 °F 71% 30.13 in 10.0 mi NE 11.5 mph 20.7 mph N/A   Clear
3:55 PM 71.6 °F 62.2 °F 72% 30.13 in 10.0 mi NE 13.8 mph 20.7 mph N/A   Clear
4:15 PM 72.0 °F 62.8 °F 73% 30.12 in 10.0 mi NE 15.0 mph 18.4 mph N/A   Clear
4:35 PM 71.2 °F 63.3 °F 76% 30.12 in 10.0 mi NE 11.5 mph 19.6 mph N/A   Clear
4:55 PM 70.3 °F 63.5 °F 79% 30.13 in 10.0 mi NE 11.5 mph 18.4 mph N/A   Clear
5:15 PM 69.8 °F 63.7 °F 81% 30.13 in 10.0 mi NE 9.2 mph - N/A   Scattered Clouds
5:35 PM 70.3 °F 64.0 °F 80% 30.14 in 10.0 mi NNE 8.1 mph - N/A   Mostly Cloudy
5:55 PM 69.8 °F 64.4 °F 83% 30.15 in 10.0 mi NNE 5.8 mph - N/A   Mostly Cloudy
6:15 PM 69.3 °F 64.9 °F 86% 30.15 in 10.0 mi NNE 8.1 mph - N/A   Mostly Cloudy
6:35 PM 69.1 °F 65.5 °F 88% 30.15 in 10.0 mi NNE 8.1 mph - N/A   Mostly Cloudy
6:55 PM 69.3 °F 65.7 °F 88% 30.15 in 10.0 mi NNE 8.1 mph - N/A   Overcast
7:15 PM 69.1 °F 66.2 °F 91% 30.15 in 10.0 mi NE 11.5 mph 16.1 mph N/A   Overcast
7:35 PM 69.3 °F 66.2 °F 90% 30.15 in 10.0 mi NE 9.2 mph 16.1 mph N/A   Overcast
7:55 PM 69.8 °F 66.6 °F 89% 30.16 in 10.0 mi NE 11.5 mph 16.1 mph N/A   Overcast
8:15 PM 70.0 °F 66.7 °F 89% 30.15 in 10.0 mi NE 10.4 mph - N/A   Overcast
8:35 PM 70.0 °F 66.4 °F 88% 30.15 in 10.0 mi NE 11.5 mph - N/A   Overcast
8:55 PM 69.8 °F 66.2 °F 88% 30.15 in 10.0 mi NE 9.2 mph - N/A   Mostly Cloudy
9:15 PM 70.0 °F 66.4 °F 88% 30.15 in 10.0 mi NE 8.1 mph - N/A   Mostly Cloudy
9:35 PM 70.3 °F 66.6 °F 88% 30.14 in 10.0 mi NE 11.5 mph - N/A   Overcast
9:55 PM 70.7 °F 66.7 °F 87% 30.14 in 10.0 mi NE 6.9 mph - N/A   Overcast
10:15 PM 70.7 °F 66.9 °F 88% 30.15 in 10.0 mi NE 5.8 mph - N/A   Overcast
10:35 PM 70.7 °F 67.3 °F 89% 30.14 in 10.0 mi NE 6.9 mph - N/A   Overcast
10:55 PM 70.9 °F 67.5 °F 89% 30.13 in 10.0 mi NE 6.9 mph - N/A   Overcast
11:15 PM 71.1 °F 67.5 °F 88% 30.12 in 10.0 mi NE 9.2 mph - N/A   Overcast
11:35 PM 72.0 °F 67.1 °F 85% 30.12 in 10.0 mi ENE 8.1 mph - N/A   Overcast
11:55 PM 72.5 °F 67.1 °F 83% 30.12 in 10.0 mi ENE 6.9 mph - N/A   Overcast